Location: Cantaing
(50.1487°N, 3.1675°E)
Time: 10:15:34
(UTC+00:00)

IGS 5A - Pass Details

Date: 14 January 2026
Orbit: 551 x 554 km, 97.4° (Epoch: 8 January)

Event Time Altitude Azimuth Distance (km) Brightness Sun altitude
Rises 06:00:27 0° 10° (N) 2,742 6.8 -15.5°
Reaches altitude 10° 06:02:36 10° 8° (N) 1,842 5.9 -15.2°
Maximum altitude 06:06:33 66° 287° (WNW) 609 3.2 -14.6°
Drops below altitude 10° 06:10:28 10° 205° (SSW) 1,827 5.9 -14.0°
Sets 06:12:36 0° 202° (SSW) 2,716 6.8 -13.7°
